Weather History for Osoyoos, BC

Change the Weather History Date:

Wednesday, October 24, 2012

  Actual Average Record
Temperature  
Mean Temperature 42 °F -  
Max Temperature 44 °F - - ()
Min Temperature 39 °F - - ()
Degree Days  
Heating Degree Days 24    
Moisture  
Dew Point 37 °F    
Average Humidity 81    
Maximum Humidity 93    
Minimum Humidity 65    
Precipitation  
Precipitation 0.00 in - - ()
Sea Level Pressure  
Sea Level Pressure 30.07 in    
Wind  
Wind Speed 4 mph ()    
Max Wind Speed 8 mph    
Max Gust Speed -    
T = Trace of Precipitation, MM = Missing Value Source: Averaged Metar Reports

Daily Weather History Graph

Daily Weather History Graph

Search for Another Location

Airport:

Trip Planner

Search our weather history database for the weather conditions in past years. The results will help you decide how hot, cold, wet, or windy it might be!

Date:

Astronomy

Oct. 24, 2012 Rise Set
Actual Time 7:33 AM PDT 5:49 PM PDT
Civil Twilight 7:00 AM PDT 6:22 PM PDT
Nautical Twilight 6:23 AM PDT 6:59 PM PDT
Astronomical Twilight 5:47 AM PDT 7:35 PM PDT
Moon 3:28 PM PDT (10/24) 2:09 AM PDT (10/24)
Length of Visible Light 11h 21m
Length of Day
10h 16m
Waxing Gibbous, 77% of the Moon is Illuminated
Oct 24
Waxing Gibbous
Oct 29
Full
Nov 6
Last Quarter
Nov 13
New
Nov 20
First Quarter

Hourly Weather History & Observations

Time (PDT) Temp. Windchill Dew Point Humidity Pressure Visibility Wind Dir Wind Speed Gust Speed Precip Events Conditions
12:00 AM 40.8 °F 38.8 °F 37.9 °F 89% 30.00 in - North 3.5 mph - N/A   Unknown
1:00 AM 39.7 °F - 37.8 °F 93% 30.00 in - SSE 1.2 mph - N/A   Unknown
2:00 AM 40.6 °F - 38.1 °F 91% 30.01 in - NNW 2.3 mph - N/A   Unknown
4:00 AM 39.9 °F - 38.1 °F 93% 30.01 in - NNE 2.3 mph - N/A   Unknown
5:00 AM 40.6 °F 38.6 °F 37.2 °F 88% 30.01 in - North 3.5 mph - N/A   Unknown
6:00 AM 40.8 °F - 37.2 °F 87% 30.02 in - NNW 1.2 mph - N/A   Unknown
7:00 AM 41.2 °F 39.2 °F 37.0 °F 85% 30.02 in - NNW 3.5 mph - N/A   Unknown
8:00 AM 40.6 °F 37.5 °F 36.1 °F 84% 30.03 in - North 4.6 mph - N/A   Unknown
9:00 AM 41.5 °F 38.6 °F 36.1 °F 81% 30.04 in - North 4.6 mph - N/A   Unknown
10:00 AM 42.4 °F 38.1 °F 35.2 °F 76% 30.04 in - NNW 6.9 mph - N/A   Unknown
11:00 AM 43 °F - 35 °F 65% 30.06 in - NW 5.8 mph - -  
11:00 AM 42.6 °F 39.0 °F 35.2 °F 75% 30.06 in - NW 5.8 mph - N/A   Unknown
12:00 PM 43.7 °F 40.3 °F 35.4 °F 73% 30.06 in - NW 5.8 mph - N/A   Unknown
1:00 PM 43.9 °F 40.5 °F 35.1 °F 71% 30.06 in - NW 5.8 mph - N/A   Unknown
2:00 PM 44.1 °F 41.5 °F 36.0 °F 73% 30.07 in - NW 4.6 mph - N/A   Unknown
3:00 PM 43.3 °F 38.6 °F 35.6 °F 74% 30.07 in - NNW 8.1 mph - N/A   Unknown
4:00 PM 43.2 °F 39.7 °F 36.0 °F 76% 30.09 in - NNW 5.8 mph - N/A   Unknown
5:00 PM 43 °F - 36 °F 69% 30.10 in - NW 8.1 mph - -  
5:00 PM 42.6 °F 37.8 °F 36.3 °F 78% 30.10 in - NW 8.1 mph - N/A   Unknown
6:00 PM 41.9 °F 38.2 °F 37.0 °F 83% 30.11 in - NW 5.8 mph - N/A   Unknown
7:00 PM 41.0 °F 37.1 °F 37.4 °F 87% 30.13 in - NW 5.8 mph - N/A   Unknown
8:00 PM 40.8 °F 37.8 °F 37.4 °F 88% 30.14 in - NW 4.6 mph - N/A   Unknown
9:00 PM 40.8 °F 37.8 °F 37.0 °F 86% 30.16 in - NW 4.6 mph - N/A   Unknown
10:00 PM 40.8 °F 37.8 °F 36.9 °F 86% 30.17 in - NW 4.6 mph - N/A   Unknown
11:00 PM 41 °F - 37 °F 80% 30.18 in - NW 5.8 mph - -  
11:00 PM 41.0 °F 37.1 °F 37.0 °F 86% 30.18 in - NW 5.8 mph - N/A   Unknown